Weather History for Egegik, AK

Change the Weather History Date:

Friday, July 5, 2013

  Actual Average (PAKN) Record (PAKN)
Temperature  
Mean Temperature 47 °F 55 °F  
Max Temperature 55 °F 64 °F 80 °F (1949)
Min Temperature 39 °F 47 °F 31 °F (2013)
Degree Days  
Heating Degree Days 18 10  
Month to date heating degree days 51  
Since 1 June heating degree days 458  
Since 1 July heating degree days 51  
Cooling Degree Days 0    
Month to date cooling degree days  
Year to date cooling degree days  
Since 1 June cooling degree days  
Moisture  
Dew Point 44 °F    
Average Humidity 92    
Maximum Humidity 100    
Minimum Humidity 77    
Precipitation  
Precipitation 0.03 in 0.06 in 0.67 in (1979)
Month to date precipitation 0.31  
Year to date precipitation 6.66  
Snow  
Snow 0.00 in 0.00 in 0.00 in (2014)
Month to date snowfall 0.0  
Since 1 June snowfall 0.0  
Since 1 July snowfall 0.0  
Snow Depth -    
Sea Level Pressure  
Sea Level Pressure 29.97 in    
Wind  
Wind Speed 8 mph (ESE)    
Max Wind Speed 21 mph    
Max Gust Speed 26 mph    
Visibility 8 miles    
Events      
T = Trace of Precipitation, MM = Missing Value Source: NWS Daily Summary

Daily Weather History Graph

Daily Weather History Graph

Search for Another Location

Airport:

Trip Planner

Search our weather history database for the weather conditions in past years. The results will help you decide how hot, cold, wet, or windy it might be!

Date:

Astronomy

Jul. 05, 2013 Rise Set
Actual Time 5:34 AM AKDT 11:32 PM AKDT
Civil Twilight 4:22 AM AKDT 12:44 AM AKDT
Nautical Twilight Sun does not rise Sun does not rise
Astronomical Twilight Sun does not rise Sun does not rise
Moon 4:00 AM AKDT (7/5) 9:20 PM AKDT (7/5)
Length of Visible Light 20h 22m
Length of Day
17h 58m
Waning Crescent, 5% of the Moon is Illuminated
Jul 5
Waning Crescent
Jul 7
New
Jul 15
First Quarter
Jul 22
Full
Jul 29
Last Quarter

Hourly Weather History & Observations

Time (AKDT) Temp. Windchill Dew Point Humidity Pressure Visibility Wind Dir Wind Speed Gust Speed Precip Events Conditions
12:16 AM 44.6 °F - 39.2 °F 81% 30.06 in 10.0 mi Calm Calm - N/A   Clear
12:36 AM 42.8 °F - 39.2 °F 87% 30.06 in 10.0 mi Calm Calm - N/A   Partly Cloudy
12:56 AM 41.0 °F 39.0 °F 39.2 °F 93% 30.06 in 10.0 mi South 3.5 mph - N/A   Mostly Cloudy
1:16 AM 41.0 °F 38.0 °F 39.2 °F 93% 30.06 in 10.0 mi ENE 4.6 mph - N/A   Overcast
1:36 AM 42.8 °F 41.1 °F 39.2 °F 87% 30.06 in 10.0 mi East 3.5 mph - N/A   Mostly Cloudy
1:56 AM 41.0 °F - 39.2 °F 93% 30.06 in 10.0 mi Calm Calm - N/A   Partly Cloudy
2:16 AM 41.0 °F - 39.2 °F 93% 30.06 in 3.0 mi Calm Calm - N/A   Clear
2:36 AM 39.2 °F 35.9 °F 39.2 °F 100% 30.06 in 0.8 mi East 4.6 mph - N/A   Overcast
2:56 AM 39.2 °F 37.0 °F 37.4 °F 93% 30.06 in 0.5 mi East 3.5 mph - N/A   Overcast
3:16 AM 39.2 °F 37.0 °F 37.4 °F 93% 30.06 in 0.5 mi East 3.5 mph - N/A   Overcast
3:36 AM 39.2 °F 35.9 °F 39.2 °F 100% 30.05 in 0.8 mi ENE 4.6 mph - N/A   Overcast
3:56 AM 41.0 °F 39.0 °F 39.2 °F 93% 30.05 in 2.5 mi East 3.5 mph - N/A   Overcast
4:16 AM 41.0 °F 36.4 °F 39.2 °F 93% 30.04 in 2.0 mi ENE 6.9 mph - N/A   Overcast
4:36 AM 39.2 °F 34.2 °F 39.2 °F 100% 30.04 in 5.0 mi ENE 6.9 mph - N/A   Overcast
4:56 AM 39.2 °F 34.2 °F 39.2 °F 100% 30.03 in 1.8 mi East 6.9 mph - N/A   Overcast
5:16 AM 39.2 °F 35.0 °F 39.2 °F 100% 30.02 in 1.2 mi East 5.8 mph - N/A   Mostly Cloudy
5:36 AM 41.0 °F 37.1 °F 39.2 °F 93% 30.02 in 9.0 mi East 5.8 mph - N/A   Overcast
5:56 AM 42.8 °F 39.3 °F 41.0 °F 93% 30.01 in 1.8 mi ENE 5.8 mph - N/A   Scattered Clouds
6:16 AM 41.0 °F 38.0 °F 39.2 °F 93% 30.01 in 0.2 mi ENE 4.6 mph - N/A   Overcast
6:36 AM 41.0 °F 38.0 °F 39.2 °F 93% 30.01 in 0.2 mi ENE 4.6 mph - N/A   Overcast
6:56 AM 42.8 °F 39.3 °F 39.2 °F 87% 30.00 in 0.5 mi ENE 5.8 mph - N/A   Overcast
7:16 AM 42.8 °F 39.3 °F 42.8 °F 100% 30.00 in 1.8 mi East 5.8 mph - N/A   Overcast
7:36 AM 46.4 °F 42.4 °F 46.4 °F 100% 30.00 in 10.0 mi ESE 8.1 mph - N/A   Overcast
7:56 AM 46.4 °F 41.5 °F 46.4 °F 100% 29.99 in 10.0 mi ESE 10.4 mph - N/A   Overcast
8:16 AM 48.2 °F - 46.4 °F 93% 29.99 in 10.0 mi ESE 11.5 mph 16.1 mph N/A   Overcast
8:36 AM 48.2 °F - 46.4 °F 93% 29.99 in 10.0 mi ESE 15.0 mph - N/A   Overcast
8:56 AM 48.2 °F - 46.4 °F 93% 29.98 in 10.0 mi ESE 17.3 mph - N/A   Overcast
9:16 AM 48.2 °F - 46.4 °F 93% 29.98 in 10.0 mi ESE 13.8 mph - N/A   Overcast
9:36 AM 48.2 °F - 46.4 °F 93% 29.98 in 10.0 mi ESE 15.0 mph 18.4 mph N/A   Overcast
9:56 AM 48.2 °F - 46.4 °F 93% 29.98 in 10.0 mi ESE 12.7 mph - N/A   Overcast
10:16 AM 48.2 °F - 46.4 °F 93% 29.98 in 10.0 mi ESE 13.8 mph - N/A   Overcast
10:36 AM 48.2 °F - 46.4 °F 93% 29.98 in 10.0 mi ESE 13.8 mph - N/A   Overcast
10:56 AM 48.2 °F - 46.4 °F 93% 29.97 in 10.0 mi ESE 16.1 mph 20.7 mph N/A   Overcast
11:16 AM 48.2 °F - 46.4 °F 93% 29.97 in 10.0 mi ESE 12.7 mph 17.3 mph N/A   Overcast
11:36 AM 48.2 °F - 46.4 °F 93% 29.96 in 10.0 mi ESE 13.8 mph 19.6 mph N/A   Overcast
11:56 AM 48.2 °F - 46.4 °F 93% 29.96 in 10.0 mi ESE 17.3 mph 21.9 mph N/A   Overcast
12:16 PM 48.2 °F - 46.4 °F 93% 29.96 in 10.0 mi ESE 15.0 mph 18.4 mph N/A   Overcast
12:36 PM 48.2 °F - 46.4 °F 93% 29.95 in 10.0 mi ESE 15.0 mph 20.7 mph N/A   Overcast
12:56 PM 48.2 °F - 46.4 °F 93% 29.95 in 10.0 mi ESE 15.0 mph 19.6 mph N/A   Overcast
1:16 PM 48.2 °F - 46.4 °F 93% 29.95 in 10.0 mi SE 15.0 mph - N/A   Overcast
1:36 PM 48.2 °F - 46.4 °F 93% 29.95 in 10.0 mi ESE 12.7 mph - N/A   Mostly Cloudy
1:56 PM 50.0 °F - 48.2 °F 94% 29.95 in 10.0 mi SE 15.0 mph - N/A   Overcast
2:16 PM 50.0 °F - 48.2 °F 94% 29.95 in 10.0 mi ESE 15.0 mph - N/A   Overcast
2:36 PM 50.0 °F - 48.2 °F 94% 29.95 in 10.0 mi SE 13.8 mph - N/A   Overcast
2:56 PM 50.0 °F - 48.2 °F 94% 29.94 in 10.0 mi SE 15.0 mph 19.6 mph N/A   Overcast
3:16 PM 51.8 °F - 48.2 °F 88% 29.94 in 10.0 mi ESE 16.1 mph - N/A   Overcast
3:36 PM 51.8 °F - 46.4 °F 82% 29.94 in 10.0 mi ESE 16.1 mph - N/A   Overcast
3:56 PM 51.8 °F - 48.2 °F 88% 29.93 in 10.0 mi ESE 12.7 mph 19.6 mph N/A   Overcast
4:16 PM 53.6 °F - 48.2 °F 82% 29.92 in 10.0 mi SE 19.6 mph 23.0 mph N/A   Overcast
4:36 PM 53.6 °F - 48.2 °F 82% 29.92 in 10.0 mi ESE 20.7 mph 24.2 mph N/A   Overcast
4:56 PM 55.4 °F - 48.2 °F 77% 29.91 in 10.0 mi ESE 19.6 mph 25.3 mph N/A   Overcast
5:16 PM 53.6 °F - 46.4 °F 77% 29.91 in 10.0 mi ESE 18.4 mph - N/A   Overcast
5:36 PM 51.8 °F - 46.4 °F 82% 29.92 in 10.0 mi SE 18.4 mph 26.5 mph N/A   Overcast
5:56 PM 51.8 °F - 46.4 °F 82% 29.92 in 10.0 mi SE 18.4 mph 24.2 mph N/A   Overcast
6:16 PM 50.0 °F - 46.4 °F 87% 29.92 in 10.0 mi SE 12.7 mph - N/A   Overcast
6:36 PM 50.0 °F - 46.4 °F 87% 29.91 in 9.0 mi SE 11.5 mph - N/A   Overcast
6:56 PM 50.0 °F - 46.4 °F 87% 29.90 in 10.0 mi SE 18.4 mph 23.0 mph N/A   Overcast
7:16 PM 50.0 °F - 46.4 °F 87% 29.90 in 10.0 mi SE 17.3 mph 20.7 mph N/A   Overcast
7:36 PM 50.0 °F - 46.4 °F 87% 29.91 in 9.0 mi SE 15.0 mph - N/A   Overcast
7:56 PM 48.2 °F - 46.4 °F 93% 29.91 in 10.0 mi SE 18.4 mph - 0.01 in   Overcast
8:16 PM 48.2 °F - 46.4 °F 93% 29.92 in 9.0 mi SE 13.8 mph - 0.01 in   Overcast
8:36 PM 48.2 °F - 46.4 °F 93% 29.91 in 10.0 mi SE 15.0 mph - 0.01 in   Overcast
8:56 PM 48.2 °F - 46.4 °F 93% 29.91 in 9.0 mi SE 15.0 mph 20.7 mph 0.02 in   Overcast
9:16 PM 48.2 °F - 46.4 °F 93% 29.91 in 9.0 mi SE 15.0 mph 23.0 mph N/A   Overcast
9:36 PM 48.2 °F - 46.4 °F 93% 29.91 in 9.0 mi ESE 13.8 mph - N/A   Overcast
9:56 PM 48.2 °F - 46.4 °F 93% 29.91 in 10.0 mi SE 11.5 mph - N/A   Overcast
10:16 PM 48.2 °F - 46.4 °F 93% 29.91 in 10.0 mi ESE 11.5 mph - N/A   Overcast
10:36 PM 48.2 °F - 46.4 °F 93% 29.91 in 10.0 mi SE 12.7 mph - N/A   Overcast
10:56 PM 48.2 °F - 46.4 °F 93% 29.91 in 10.0 mi SE 9.2 mph - N/A   Overcast
11:16 PM 46.4 °F 41.1 °F 44.6 °F 93% 29.91 in 10.0 mi SE 11.5 mph - N/A   Overcast
11:36 PM 46.4 °F 41.1 °F 44.6 °F 93% 29.90 in 10.0 mi ESE 11.5 mph - N/A   Overcast
11:56 PM 46.4 °F 41.5 °F 44.6 °F 93% 29.90 in 10.0 mi ESE 10.4 mph - N/A   Overcast